[[{"header":{"parameterUnit":"m.s-1","parameterCategory":1,"la1":30.2991,"la2":30.254,"lo1":-89.0895,"lo2":-89.0444,"dy":0.0017,"dx":0.0017,"nx":28,"ny":28,"refTime":"2024-02-02T03:00:00:Z","depth":0,"parameterNumber":2,"parameterNumberName":"U-component_of_WINDS"},"data":[0,0,0,0,0,0,0,0,0,0,0,0,0,0,0,0,0,0,0,0,0,0,0,0,0,0,0,0,0,0,0,0,0,0,0,0,0,0,0,0,0,0,0,0,0,0,0,0,0,0,0,0,0,0,0,0,0,0,-0.116,-0.1159,0,-0.1093,-0.1092,-0.1091,-0.1057,-0.1057,-0.1057,-0.1057,-0.0987,-0.0985,-0.0983,0,0,0,0,0,0,0,0,0,0,0,0,0,-0.1258,-0.1257,-0.116,-0.1159,-0.1158,-0.1093,-0.1092,-0.1091,-0.1057,-0.1057,-0.1057,-0.1057,-0.0988,-0.0986,-0.0983,0,0,0,0,0,0,0,0,0,0,0,0,0,-0.1206,-0.1256,-0.116,-0.1133,-0.113,-0.1093,-0.1092,-0.1091,-0.1057,-0.1057,-0.1057,-0.1057,-0.0988,-0.0986,-0.0983,-0.0967,0,0,-0.0975,-0.0973,0,0,0,0,0,0,0,0,-0.1209,-0.1202,-0.1138,-0.1135,-0.1132,-0.1083,-0.1101,-0.1049,-0.1057,-0.1085,-0.1057,-0.1057,-0.1019,-0.1014,-0.1001,-0.0963,-0.096,-0.0974,-0.0973,-0.0971,-0.0971,0,0,0,0,0,0,0,-0.1213,-0.1205,-0.1133,-0.1137,-0.1133,-0.1125,-0.1117,-0.1091,-0.1053,-0.1082,-0.108,-0.1072,-0.1017,-0.1004,-0.0999,-0.0959,-0.0974,-0.0972,-0.097,-0.0969,-0.0906,-0.0905,0,0,0,0,0,0,-0.1221,-0.1208,-0.1135,-0.1131,-0.1171,-0.1123,-0.1115,-0.1099,-0.1053,-0.1046,-0.1072,-0.1071,-0.1009,-0.1003,-0.0997,-0.0975,-0.0971,-0.0969,-0.0967,-0.0906,-0.0906,-0.0905,0,0,0,0,0,0,-0.1223,-0.1214,-0.1138,-0.1169,-0.1159,-0.1121,-0.1104,-0.1097,-0.1084,-0.1046,-0.1039,-0.1066,-0.1008,-0.1001,-0.0975,-0.0972,-0.0968,-0.0965,-0.0906,-0.0906,-0.0905,-0.0931,0,0,0,0,0,0,-0.1226,-0.1215,-0.1209,-0.1169,-0.1157,-0.1117,-0.1104,-0.1096,-0.108,-0.1077,-0.1037,-0.1031,-0.1008,-0.0979,-0.0972,-0.0968,-0.0963,-0.0906,-0.0906,-0.0906,-0.093,-0.0932,-0.0933,0,0,0,0,0,-0.1229,-0.1218,-0.1209,-0.12,-0.1148,-0.1117,-0.111,-0.1084,-0.1079,-0.1072,-0.1048,-0.1032,-0.0974,-0.0977,-0.0968,-0.0964,-0.0906,-0.0906,-0.0906,-0.093,-0.0932,-0.0933,0,0,0,0,0,0,-0.1258,-0.1212,-0.1201,-0.1177,-0.1151,-0.1111,-0.1102,-0.1087,-0.1062,-0.106,-0.1029,-0.102,-0.0997,-0.0978,-0.0982,-0.0946,-0.0938,-0.0936,-0.0959,-0.0961,-0.0962,-0.0967,-0.0961,0,0,0,0,0,-0.1261,-0.124,-0.1202,-0.1184,-0.1172,-0.1139,-0.1125,-0.1107,-0.1079,-0.1068,-0.1041,-0.1014,-0.099,-0.0974,-0.095,-0.0928,-0.0919,-0.0921,-0.0922,-0.0924,-0.0922,-0.091,-0.0911,-0.0905,-0.0905,-0.0905,0,0,-0.1268,-0.1241,-0.1229,-0.1189,-0.1167,-0.1146,-0.113,-0.1108,-0.1092,-0.1064,-0.1038,-0.1018,-0.0986,-0.0962,-0.095,-0.0945,-0.0922,-0.0923,-0.0925,-0.0923,-0.091,-0.0911,-0.0911,-0.0905,-0.0905,-0.0905,0,0,-0.127,-0.1247,-0.123,-0.1209,-0.1176,-0.1154,-0.1151,-0.1113,-0.1099,-0.1073,-0.1051,-0.1032,-0.099,-0.0969,-0.0952,-0.0948,-0.0932,-0.094,-0.0948,-0.0937,-0.0937,-0.0937,-0.0936,-0.0936,-0.0939,-0.0939,-0.0939,0,-0.1282,-0.125,-0.1223,-0.1202,-0.1186,-0.116,-0.1143,-0.1123,-0.1084,-0.1073,-0.1068,-0.1016,-0.0993,-0.0964,-0.0963,-0.0951,-0.0945,-0.0944,-0.0939,-0.0939,-0.0939,-0.0937,-0.0937,-0.0941,-0.094,-0.094,-0.094,0,-0.1267,-0.1245,-0.1235,-0.1199,-0.1181,-0.1162,-0.1133,-0.1118,-0.1102,-0.1081,-0.1055,-0.1027,-0.0996,-0.0988,-0.0972,-0.0957,-0.0955,-0.0945,-0.0937,-0.0941,-0.0939,-0.0938,-0.0942,-0.0942,-0.0942,-0.0941,0,0,-0.1283,-0.1233,-0.123,-0.1214,-0.1177,-0.1159,-0.114,-0.111,-0.1098,-0.1073,-0.1056,-0.1022,-0.1013,-0.0994,-0.0976,-0.0966,-0.0965,-0.0957,-0.0956,-0.096,-0.0947,-0.0955,-0.0955,-0.0954,-0.0954,-0.0954,-0.095,0,-0.128,-0.1244,-0.122,-0.1193,-0.1173,-0.1149,-0.1132,-0.1108,-0.1088,-0.1068,-0.1046,-0.1023,-0.1013,-0.1002,-0.0991,-0.0967,-0.0962,-0.0967,-0.0938,-0.0938,-0.0947,-0.0954,-0.0962,-0.0959,-0.0949,-0.0949,-0.0949,0,-0.127,-0.1246,-0.1218,-0.1184,-0.1175,-0.116,-0.1132,-0.1113,-0.1085,-0.1071,-0.1052,-0.1033,-0.1012,-0.1006,-0.0976,-0.0981,-0.0968,-0.0954,-0.0954,-0.095,-0.0944,-0.095,-0.0958,-0.0958,-0.0947,-0.0948,-0.0948,0,-0.1286,-0.1246,-0.1224,-0.1211,-0.1171,-0.1161,-0.1144,-0.1116,-0.11,-0.1076,-0.1065,-0.1039,-0.1024,-0.1004,-0.0979,-0.0977,-0.0952,-0.0944,-0.0941,-0.0941,-0.0936,-0.0937,-0.0942,-0.0928,-0.0928,-0.0928,-0.0928,0,-0.1284,-0.1268,-0.1231,-0.1217,-0.1199,-0.1172,-0.1154,-0.1135,-0.111,-0.1093,-0.1071,-0.1055,-0.1023,-0.1003,-0.0983,-0.0963,-0.0956,-0.0945,-0.094,-0.0947,-0.0948,-0.0938,-0.0937,-0.0928,-0.0928,-0.0928,-0.0928,0,-0.1298,-0.1272,-0.1247,-0.1211,-0.1202,-0.119,-0.116,-0.1146,-0.1126,-0.1104,-0.1098,-0.1066,-0.1042,-0.1015,-0.0982,-0.0969,-0.0949,-0.0942,-0.0959,-0.0956,-0.0955,-0.0955,-0.0953,-0.0952,-0.0939,-0.0939,-0.0939,0,-0.1298,-0.1285,-0.1249,-0.1236,-0.122,-0.1199,-0.1183,-0.1157,-0.1141,-0.1109,-0.11,-0.1074,-0.1052,-0.1015,-0.0989,-0.0963,-0.0955,-0.0957,-0.0951,-0.0959,-0.0956,-0.0957,-0.0956,-0.0958,-0.0958,-0.0958,-0.0959,0,-0.1302,-0.1291,-0.1269,-0.1244,-0.1226,-0.1204,-0.1182,-0.1173,-0.1141,-0.1125,-0.1101,-0.1084,-0.1051,-0.1026,-0.0998,-0.098,-0.0964,-0.0961,-0.0959,-0.0966,-0.0976,-0.0971,-0.0963,-0.0961,-0.096,-0.096,-0.096,-0.096,-0.1309,-0.1297,-0.127,-0.1247,-0.1228,-0.1208,-0.1193,-0.1172,-0.1151,-0.1123,-0.1108,-0.1084,-0.1058,-0.1018,-0.1001,-0.0982,-0.0977,-0.0974,-0.0973,-0.0973,-0.0975,-0.098,-0.0977,-0.0977,-0.0977,-0.0976,-0.0976,0,-0.1312,-0.1294,-0.1273,-0.1243,-0.1226,-0.1213,-0.1188,-0.1174,-0.1153,-0.113,-0.111,-0.1082,-0.1058,-0.1031,-0.1005,-0.0996,-0.0988,-0.099,-0.099,-0.0986,-0.0981,-0.0985,-0.0997,-0.0997,-0.0997,-0.0997,-0.0997,-0.0997,-0.1312,-0.1291,-0.1276,-0.1246,-0.1228,-0.1204,-0.1191,-0.1173,-0.1154,-0.1125,-0.1105,-0.1088,-0.1063,-0.1036,-0.1014,-0.1007,-0.0998,-0.1003,-0.0993,-0.0988,-0.0987,-0.0985,-0.0989,-0.1001,-0.1001,-0.1,-0.1,-0.1]},{"header":{"parameterUnit":"m.s-1","parameterCategory":1,"la1":30.2991,"la2":30.254,"lo1":-89.0895,"lo2":-89.0444,"dy":0.0017,"dx":0.0017,"nx":28,"ny":28,"refTime":"2024-02-02T03:00:00:Z","depth":0,"parameterNumber":3,"parameterNumberName":"V-component_of_WINDS"},"data":[0,0,0,0,0,0,0,0,0,0,0,0,0,0,0,0,0,0,0,0,0,0,0,0,0,0,0,0,0,0,0,0,0,0,0,0,0,0,0,0,0,0,0,0,0,0,0,0,0,0,0,0,0,0,0,0,0,0,1.0425,1.0424,0,1.0392,1.0392,1.0391,1.0434,1.0435,1.0437,1.0438,1.0401,1.0399,1.0396,0,0,0,0,0,0,0,0,0,0,0,0,0,1.052,1.0518,1.0425,1.0424,1.0424,1.0392,1.0392,1.0391,1.0434,1.0435,1.0437,1.0439,1.0402,1.0399,1.0396,0,0,0,0,0,0,0,0,0,0,0,0,0,1.0482,1.0518,1.0425,1.0441,1.0442,1.0392,1.0392,1.0391,1.0433,1.0435,1.0438,1.044,1.0403,1.0399,1.0396,1.0327,0,0,1.0385,1.0383,0,0,0,0,0,0,0,0,1.0484,1.0479,1.0439,1.044,1.0441,1.042,1.0412,1.0369,1.0433,1.0436,1.0438,1.0441,1.0405,1.0401,1.039,1.0325,1.0323,1.0384,1.0382,1.038,1.0379,0,0,0,0,0,0,0,1.0487,1.048,1.0412,1.0439,1.044,1.0449,1.0446,1.0404,1.0408,1.0436,1.0439,1.0435,1.0406,1.0393,1.0389,1.0323,1.0384,1.0381,1.0379,1.0377,1.0198,1.0196,0,0,0,0,0,0,1.0488,1.0482,1.0413,1.0411,1.0469,1.0446,1.0442,1.0424,1.0409,1.0409,1.0433,1.0437,1.0399,1.0394,1.0388,1.0306,1.038,1.0377,1.0375,1.0201,1.0198,1.0195,0,0,0,0,0,0,1.049,1.0482,1.0414,1.0447,1.0439,1.0442,1.042,1.0422,1.041,1.0406,1.0407,1.042,1.04,1.0393,1.0342,1.0305,1.0375,1.0372,1.0204,1.02,1.0197,1.014,0,0,0,0,0,0,1.0493,1.0482,1.0456,1.0446,1.0438,1.0369,1.0418,1.042,1.0404,1.0409,1.0394,1.0394,1.0402,1.0347,1.0338,1.0301,1.0369,1.0207,1.0202,1.0198,1.0145,1.0135,1.0126,0,0,0,0,0,1.0496,1.0441,1.0455,1.0446,1.0406,1.0366,1.0361,1.0373,1.0401,1.0374,1.0372,1.0394,1.0311,1.0341,1.0332,1.0293,1.021,1.0204,1.0198,1.0149,1.0137,1.0126,0,0,0,0,0,0,1.0445,1.044,1.0455,1.0396,1.0381,1.0374,1.0341,1.0359,1.0335,1.0341,1.0355,1.0351,1.0296,1.029,1.0324,1.0225,1.0265,1.0257,1.0231,1.0219,1.0209,1.0211,1.0366,0,0,0,0,0,1.0427,1.0397,1.0394,1.0341,1.0334,1.0338,1.0322,1.0332,1.0317,1.0311,1.0305,1.0289,1.0259,1.0239,1.0211,1.0145,1.0142,1.0114,1.0104,1.0096,1.0088,1.0052,1.0039,1.0176,1.0176,1.0176,0,0,1.0389,1.0383,1.0363,1.0331,1.0321,1.0288,1.0333,1.0296,1.0272,1.0305,1.0256,1.0251,1.0234,1.0174,1.0148,1.0167,1.005,1.0089,1.0083,1.0079,1.0045,1.0032,1.002,1.0172,1.0173,1.0174,0,0,1.0303,1.0296,1.0251,1.0241,1.0226,1.023,1.0219,1.0209,1.0207,1.0158,1.0183,1.0153,1.0102,1.0088,1.0075,0.9985,1.0003,0.9975,0.9924,0.9888,0.9878,0.9868,0.9835,0.9823,0.9968,0.9968,0.9968,0,1.0258,1.021,1.0226,1.0188,1.0172,1.0203,1.0157,1.0146,1.0122,1.011,1.0133,1.0069,1.006,0.9997,0.9976,0.9964,0.9951,0.9976,0.9878,0.9869,0.986,0.9828,0.9816,0.9965,0.9965,0.9965,0.9966,0,1.0154,1.0121,1.0087,1.0064,1.0045,1.0003,1.0012,0.9991,1.0003,1.0004,0.9953,0.9944,0.9914,0.9901,0.9912,0.9839,0.9852,0.9876,0.9916,0.9843,0.9814,0.9802,0.996,0.9961,0.9962,0.9963,0,0,1.0033,1.0021,1.0008,0.9998,0.9984,0.9958,0.9918,0.989,0.9871,0.9854,0.9819,0.9776,0.9799,0.9783,0.9793,0.9762,0.969,0.979,0.979,0.977,0.9608,0.9589,0.9575,0.9703,0.9701,0.9699,0.9609,0,0.9946,0.9877,0.989,0.9822,0.9791,0.982,0.9784,0.9771,0.9772,0.9744,0.9744,0.9713,0.9745,0.9736,0.9707,0.9705,0.9657,0.9712,0.9669,0.9667,0.9671,0.9559,0.9539,0.9454,0.9598,0.9596,0.9595,0,0.9835,0.9815,0.9744,0.9735,0.9723,0.9691,0.9667,0.9641,0.9626,0.9629,0.9612,0.9628,0.9586,0.9628,0.957,0.9607,0.9591,0.9587,0.9584,0.9579,0.9625,0.955,0.9428,0.9414,0.9577,0.9578,0.9579,0,0.9753,0.9708,0.966,0.965,0.9639,0.9616,0.961,0.9598,0.9581,0.956,0.9548,0.9522,0.9507,0.9486,0.9494,0.9524,0.9434,0.9477,0.9434,0.9433,0.9412,0.9412,0.9284,0.9404,0.9404,0.9404,0.9405,0,0.9653,0.9608,0.9622,0.9592,0.9542,0.9558,0.9508,0.9505,0.9495,0.9464,0.9488,0.9458,0.9471,0.9442,0.9448,0.9399,0.9392,0.9392,0.9394,0.9389,0.9388,0.9377,0.9382,0.9401,0.9402,0.9402,0.9403,0,0.9551,0.9559,0.9508,0.9503,0.95,0.9463,0.9458,0.9429,0.9432,0.9393,0.9384,0.9388,0.9355,0.9361,0.9325,0.9329,0.9266,0.9276,0.9271,0.9273,0.9229,0.9232,0.9086,0.9067,0.9201,0.92,0.9199,0,0.9487,0.9453,0.9444,0.9425,0.9418,0.9388,0.9371,0.9385,0.9366,0.9348,0.9321,0.9291,0.9267,0.9213,0.9211,0.9183,0.9191,0.9142,0.9187,0.9183,0.9189,0.919,0.9186,0.9133,0.9131,0.913,0.9129,0,0.937,0.9376,0.9351,0.9327,0.9306,0.9288,0.9272,0.9255,0.9268,0.9246,0.9213,0.9195,0.9158,0.9127,0.9101,0.9094,0.9112,0.9115,0.9103,0.9097,0.9095,0.9094,0.9245,0.9118,0.9119,0.912,0.912,0.9121,0.9284,0.9255,0.9244,0.9215,0.9205,0.919,0.9162,0.9162,0.9136,0.9108,0.9118,0.908,0.9067,0.9034,0.9024,0.8994,0.9012,0.8995,0.8991,0.8986,0.898,0.9101,0.8989,0.899,0.899,0.899,0.8991,0,0.9167,0.9162,0.9136,0.9113,0.909,0.9112,0.9096,0.9075,0.9042,0.9028,0.9005,0.8967,0.8937,0.8934,0.8905,0.8882,0.889,0.8874,0.8874,0.8872,0.8966,0.8978,0.8868,0.8868,0.8868,0.8868,0.8868,0.8868,0.9104,0.9056,0.906,0.9008,0.9003,0.8967,0.8955,0.8941,0.893,0.8887,0.8863,0.8862,0.8852,0.8823,0.8796,0.8796,0.8784,0.8764,0.8767,0.8854,0.8866,0.8877,0.8889,0.8762,0.8761,0.8675,0.8675,0.8674]}]]